Location: Kaseke
(18.0171°S, 31.0526°E)
Time: 12:39:31
(UTC+00:00)

EPKM - Pass Details

Date: 14 July 2020
Orbit: 298 x 17561 km, 25.8° (Epoch: 08 August)

Event Time Altitude Azimuth Distance (km) Brightness Sun altitude
Exits shadow 03:06:36 29° 195° (SSW) 1,007 3.3 -18.9°
Maximum altitude 03:07:16 31° 172° (S) 1,057 3.6 -18.8°
Drops below altitude 10° 03:13:29 10° 110° (ESE) 3,579 7.2 -17.4°
Sets 03:20:08 0° 102° (ESE) 6,476 8.8 -15.9°
